RH
84 70 96 77 57 75 95 88 98 76 49 67 94 99 92 68 46 14 8 7 10 11 11 9 8 6 6 7 8 8 21 23 30 30 29 9 10 13 15 15 18 22 20 19 18
84 70 75 66 67 85 86 91 98 78 52 66 99 99 89 74 50 16 8 8 10 11 12 11 10 9 8 8 9 10 26 30 18 20 14 10 13 14 17 18 18 19 20 20 19
90 75 75 71 80 92 86 76 98 84 56 97 97 99 87 74 48 17 8 8 10 12 12 12 13 11 10 10 10 11 33 18 10 9 9 10 12 14 19 18 21 21 21 20 18
81 78 87 78 94 90 86 64 96 79 57 97 100 99 83 72 61 17 10 9 10 12 12 12 13 13 12 11 11 12 11 10 9 9 9 12 10 15 16 22 20 23 19 15 10
89 92 97 95 91 94 74 69 82 70 53 67 90 97 77 58 43 16 11 10 9 10 12 12 13 13 13 12 11 11 10 10 9 8 9 12 15 17 20 19 23 19 12 7 5
96 95 95 92 91 96 88 70 69 77 58 58 80 99 68 56 34 15 13 11 10 10 11 14 16 14 13 12 12 10 10 9 9 11 13 15 17 20 22 22 22 19 13 7 5
94 97 95 98 97 98 84 73 76 94 82 67 80 96 59 51 25 18 16 14 12 11 11 11 12 13 12 11 11 10 10 10 13 16 19 20 21 18 22 22 21 20 17 12 6
94 91 96 92 89 88 78 78 72 92 89 97 100 96 54 39 25 22 21 18 17 16 12 13 13 13 11 13 13 14 17 18 18 19 21 22 24 22 22 22 22 21 17 10 6
83 90 89 86 81 69 57 62 75 89 91 97 96 76 53 35 31 27 18 21 18 17 15 14 14 14 16 17 18 20 29 31 20 19 22 23 24 22 19 16 16 9 7 6 4
82 76 87 99 93 96 72 59 63 69 78 96 98 59 46 48 38 34 28 21 19 18 19 18 17 20 22 35 45 29 27 25 27 21 23 22 21 16 13 13 10 6 5 4 4
68 80 90 91 85 100 99 88 88 69 81 91 72 57 49 45 43 41 34 32 25 23 24 21 18 24 20 24 26 25 23 23 20 16 13 10 9 8 7 6 5 4 4 4 4
60 63 88 97 91 79 91 95 73 80 99 77 50 49 45 49 54 47 36 36 35 28 20 20 23 19 21 21 18 16 18 18 13 11 10 8 6 5 5 4 4 4 4 6 9
68 77 90 91 88 90 94 79 71 72 63 51 40 43 47 39 39 43 35 31 29 25 40 34 21 20 19 18 16 14 22 12 11 9 7 10 4 16 8 8 9 11 12 13 14
76 92 85 87 95 82 65 54 45 46 47 52 46 43 42 40 42 35 32 26 25 24 23 23 20 19 18 17 15 17 12 10 9 11 45 14 31 19 20 7 6 7 7 8 9
78 76 86 85 84 78 67 62 57 57 77 46 41 36 34 33 30 30 27 24 23 22 24 24 20 18 17 15 13 12 10 10 13 17 19 44 37 20 9 25 10 9 9 11 12
66 68 71 80 75 65 64 64 59 70 81 54 43 42 35 30 29 28 27 25 24 24 23 21 20 18 16 14 12 11 13 17 18 21 64 44 36 14 20 10 7 5 6 9 10
48 52 54 59 61 59 57 56 59 89 61 54 53 44 37 35 33 33 31 28 28 27 21 22 20 17 16 15 14 16 26 72 74 76 52 26 20 16 26 8 5 7 10 7 9
45 45 46 47 51 53 55 56 72 78 79 51 49 47 46 43 40 38 36 33 29 27 21 25 26 18 16 17 33 22 22 65 56 40 33 36 30 38 10 8 8 9 8 8 11
40 46 46 45 51 54 52 66 66 79 54 53 49 57 45 42 41 38 37 36 22 20 38 20 24 20 20 19 21 34 51 24 23 36 56 39 22 15 9 8 10 12 14 15 15
33 37 42 46 49 52 54 58 59 53 52 49 50 51 52 40 40 41 29 26 22 20 20 20 30 26 24 25 26 26 29 43 45 63 35 27 25 34 8 9 14 18 17 19 20
16 25 35 38 44 47 48 49 53 51 45 40 41 41 48 34 40 36 31 26 23 25 23 22 23 32 27 28 56 27 32 23 35 37 32 17 24 10 8 13 16 16 18 19 23
14 15 16 25 34 37 40 44 42 40 35 36 36 35 50 33 36 48 39 24 24 21 24 19 30 50 53 20 20 24 56 49 36 36 34 37 25 16 12 13 16 17 19 26 34
15 17 18 18 18 24 30 34 27 26 28 30 29 30 30 26 28 22 20 21 18 14 20 23 32 44 37 22 21 23 19 22 52 41 37 22 18 19 13 17 36 33 22 25 24
12 12 16 19 21 22 21 23 24 27 26 25 21 23 22 24 27 30 28 25 28 28 27 20 20 32 34 35 31 19 14 16 35 55 35 31 24 25 30 34 42 23 24 26 25
33 18 12 13 15 17 22 24 24 25 27 29 29 28 30 28 27 28 27 26 24 24 21 20 23 22 13 14 16 17 23 30 24 18 34 30 30 32 42 44 30 27 30 29 29
39 42 34 18 13 12 13 18 18 18 23 26 26 26 26 27 26 31 24 25 27 25 25 27 37 30 17 15 16 18 16 18 41 53 55 47 44 49 41 34 33 33 34 42 47
31 35 42 47 46 28 20 14 13 14 16 17 18 20 23 23 24 25 25 26 26 29 31 37 36 38 49 26 27 33 20 28 30 25 27 54 50 55 38 37 37 36 45 47 48
Wind_Speed
29 18 7 15 18 20 19 33 20 30 40 40 34 19 23 23 23 25 30 33 31 31 30 30 30 29 29 30 31 25 14 11 11 13 13 15 16 16 14 12 13 12 14 13 11
24 12 9 11 18 15 19 28 18 27 36 37 29 20 26 22 22 24 24 27 30 31 30 30 30 29 29 29 29 25 12 12 16 18 13 14 16 15 15 14 13 13 13 14 14
19 15 9 16 17 16 25 22 16 23 34 39 32 24 30 26 22 22 26 28 30 30 31 31 30 30 30 29 29 25 14 16 17 15 15 14 17 15 15 15 14 14 14 14 14
16 9 9 12 12 17 25 22 16 21 30 38 29 21 28 25 10 21 24 28 29 29 29 29 29 30 29 29 28 23 20 17 15 15 14 14 15 16 16 17 12 14 14 14 13
17 10 7 14 20 18 18 21 15 19 26 34 32 14 27 22 17 21 24 28 29 28 27 26 27 28 28 29 26 21 20 17 14 14 15 13 15 17 15 15 14 13 13 13 13
16 13 14 15 18 21 20 16 11 13 18 22 27 17 23 14 17 21 23 27 29 27 27 25 26 26 26 26 25 22 19 15 14 14 14 14 15 15 15 14 14 14 14 14 14
21 20 19 20 24 24 18 16 15 14 11 14 13 24 22 17 20 22 23 24 27 28 27 26 24 24 23 21 21 17 16 15 14 13 13 13 15 15 16 15 16 15 15 17 17
19 27 27 28 26 20 18 16 14 10 18 12 13 28 19 14 21 22 24 25 26 26 25 23 23 20 21 18 19 16 15 14 15 14 14 13 7 12 14 16 17 19 18 18 18
16 20 21 22 22 22 19 16 17 14 13 9 24 25 16 19 21 23 24 25 24 25 24 22 21 18 19 16 17 17 8 11 12 15 14 14 11 16 14 16 17 16 15 17 19
16 17 19 18 17 18 24 24 21 14 7 6 13 15 18 20 21 22 22 23 24 23 23 23 18 19 18 16 8 12 8 12 8 12 14 16 17 18 18 16 16 17 18 21 23
15 17 21 19 21 24 29 29 22 18 17 11 17 17 23 21 22 22 22 23 23 24 20 24 17 18 20 17 9 12 7 7 10 9 12 14 15 15 15 17 17 19 23 26 28
18 14 13 16 17 18 20 24 19 20 25 22 24 22 23 22 22 22 22 23 20 18 22 21 18 18 16 12 10 9 7 6 6 8 11 15 15 13 16 18 22 23 25 28 30
17 15 11 14 18 14 20 27 26 30 25 20 20 21 21 19 22 21 20 20 18 20 15 12 20 17 15 12 8 7 7 5 5 7 10 14 14 6 12 15 17 20 22 24 26
18 21 23 23 29 31 37 39 30 24 19 14 17 16 19 18 18 19 18 18 19 18 15 12 18 16 12 9 8 5 4 4 5 5 3 8 6 10 9 7 9 12 13 14 15
16 16 20 26 29 24 24 24 20 8 5 9 13 19 21 7 20 17 17 17 20 17 6 10 15 13 10 8 6 4 4 4 7 8 8 5 2 3 5 2 6 9 11 12 12
6 8 14 17 17 13 12 8 4 4 5 6 15 14 15 19 17 18 13 15 14 10 7 12 12 8 8 7 5 3 3 7 8 6 2 6 2 4 3 6 7 12 11 10 10
5 4 4 8 7 7 6 5 3 6 13 13 14 15 17 16 15 15 16 16 9 8 9 10 9 7 7 5 4 2 3 2 1 2 2 4 6 8 8 8 12 8 7 9 9
12 4 4 5 5 7 5 4 5 14 6 19 17 15 13 16 13 13 11 8 7 6 10 5 4 9 7 7 4 2 3 0 2 2 3 9 8 3 7 3 5 3 9 12 9
16 14 5 5 5 7 5 3 7 9 23 20 16 9 13 11 10 10 11 10 8 9 4 6 3 8 5 7 6 2 1 3 1 6 3 5 5 5 4 1 7 5 10 12 11
16 18 15 9 6 7 5 9 13 22 22 19 5 9 7 11 9 8 11 10 8 8 7 5 2 7 8 8 9 9 4 0 3 2 4 5 6 7 7 7 5 10 21 21 20
13 17 15 13 11 13 16 21 23 21 18 12 9 10 8 11 9 9 9 6 10 9 9 6 5 3 8 8 6 10 9 8 5 3 3 4 1 7 9 9 8 21 25 19 16
10 12 10 9 9 14 20 23 20 15 6 6 9 12 8 10 9 7 7 8 12 10 9 9 5 3 6 9 12 15 10 10 6 5 6 3 10 11 7 10 15 30 25 13 16
10 11 9 7 8 11 12 12 8 7 8 10 9 10 10 9 5 8 9 9 10 11 9 9 5 3 3 9 14 15 16 16 13 13 13 5 2 7 8 13 21 27 24 16 21
4 5 7 7 8 8 9 8 7 5 4 4 8 7 8 8 5 8 9 9 10 11 10 8 10 9 4 3 4 7 10 14 18 10 11 20 17 15 19 20 24 27 20 21 26
8 5 3 4 3 3 2 4 4 3 3 5 6 4 6 3 4 5 8 8 9 10 10 10 10 14 17 19 20 21 21 21 27 30 17 16 16 17 26 27 24 20 22 21 27
11 7 5 3 3 3 3 4 4 3 3 5 4 6 7 7 8 5 8 9 10 9 12 14 12 15 20 18 21 27 28 31 30 29 31 30 30 16 11 16 19 13 21 29 30
10 9 7 6 3 1 1 3 3 4 5 6 6 7 8 9 10 10 11 12 12 11 11 13 11 10 8 14 17 22 19 24 27 25 19 22 10 19 19 15 12 18 29 29 30
Wind_Direction
351 359 212 200 204 207 217 185 195 187 195 196 206 193 182 184 186 187 188 191 190 186 183 181 179 179 187 182 181 183 172 184 183 176 223 201 203 208 214 223 223 230 244 267 268
2 25 102 169 176 186 194 186 182 183 191 187 205 179 173 179 180 187 181 187 186 186 183 180 180 177 184 184 184 180 172 182 182 198 212 205 208 213 215 224 231 240 250 260 263
26 58 90 142 163 173 175 182 181 183 188 185 203 212 165 171 172 179 178 178 182 186 183 180 179 177 184 185 187 187 187 201 203 206 211 211 214 214 216 226 237 248 259 264 264
22 82 101 153 164 156 155 177 176 186 188 195 202 191 165 164 176 175 174 173 177 183 184 181 181 181 182 188 190 192 202 205 207 212 211 209 216 219 224 232 246 252 262 262 261
43 82 92 111 119 126 151 174 182 188 185 196 206 185 159 166 162 167 169 169 172 177 183 182 182 184 185 187 191 198 202 209 211 211 215 216 218 226 230 243 249 252 257 257 257
56 50 93 120 134 134 136 162 178 158 184 191 213 196 158 161 158 159 164 166 166 171 179 178 184 182 192 188 187 198 204 211 215 212 216 222 226 232 239 247 251 255 255 258 259
49 74 68 122 117 101 113 134 145 130 157 168 205 154 159 145 152 153 156 161 161 167 177 185 183 184 183 190 192 190 198 205 213 215 219 227 238 242 253 256 259 262 264 263 262
52 66 72 77 91 99 94 103 139 141 147 159 191 159 135 140 148 147 149 156 159 164 168 176 182 184 185 180 183 183 186 194 210 215 223 228 234 263 257 261 267 268 266 264 265
64 79 84 96 102 111 116 110 122 136 159 149 149 140 136 140 142 143 154 151 155 156 158 170 176 179 172 171 169 179 197 192 209 220 229 234 240 262 272 271 270 273 271 270 271
77 82 87 90 98 102 109 107 103 121 140 227 150 128 145 140 136 137 143 146 148 150 155 164 164 167 167 169 177 189 177 194 202 222 237 253 264 273 276 271 268 268 271 270 271
77 86 93 94 96 119 113 108 94 102 142 142 138 139 141 138 134 136 138 140 145 145 158 164 162 165 177 174 183 175 172 172 218 240 260 270 277 269 270 272 269 267 268 272 277
69 83 92 95 89 117 114 106 107 107 118 119 121 133 135 135 134 138 141 141 143 154 150 157 168 165 169 172 165 168 176 213 244 256 275 279 281 276 267 268 270 274 277 278 282
84 84 96 85 96 114 128 117 109 114 100 103 115 127 131 136 136 140 141 143 143 148 144 160 157 157 167 169 170 187 188 221 259 292 288 300 297 292 277 269 266 271 274 274 275
80 91 98 103 104 112 113 111 110 103 95 96 112 120 128 132 133 138 141 141 147 152 144 145 152 157 168 175 186 207 222 250 285 303 262 312 291 311 270 302 280 275 277 279 283
82 83 93 109 116 115 118 121 113 95 83 116 110 125 130 139 139 140 147 147 146 146 154 156 159 158 167 182 195 222 239 274 286 291 304 283 291 275 296 71 290 295 296 293 288
88 82 100 121 122 118 120 129 88 73 82 129 128 129 126 137 142 140 145 150 147 149 137 158 163 167 178 186 204 227 294 305 294 297 293 241 201 296 218 292 307 310 308 312 301
140 141 134 146 142 151 164 151 50 65 131 140 134 136 139 140 142 144 147 154 151 139 142 153 168 180 187 179 205 229 3 319 303 15 358 219 262 233 276 305 310 297 321 309 290
62 105 151 168 177 173 174 108 76 134 124 148 144 144 145 145 150 149 155 164 166 161 156 158 176 194 194 195 183 193 168 143 287 306 15 264 238 207 309 12 51 14 314 304 280
46 61 59 114 139 154 146 84 110 131 142 145 147 144 159 165 163 169 180 188 186 186 177 178 202 203 204 208 201 219 165 241 289 287 268 237 274 294 180 227 316 299 326 316 296
54 57 65 74 105 114 121 124 135 139 141 142 142 148 167 183 171 178 188 205 200 199 190 191 175 216 214 221 225 218 207 120 228 287 273 233 268 209 218 292 246 321 329 318 309
61 61 56 62 84 111 123 124 131 141 146 154 161 164 172 181 175 189 202 205 202 205 203 196 210 240 224 231 229 226 224 216 219 232 284 306 243 246 247 232 250 322 327 326 332
61 67 70 76 92 118 126 134 139 148 162 162 160 161 158 174 178 188 201 208 204 203 203 211 201 221 223 249 237 225 210 206 233 206 231 268 277 279 207 218 290 320 324 316 332
68 65 65 75 108 123 126 137 146 151 146 152 164 169 177 179 180 211 215 216 206 203 200 202 211 200 288 261 248 240 239 228 231 234 234 256 260 264 269 287 315 306 307 292 314
48 77 81 85 97 109 123 129 133 132 129 140 162 173 177 188 217 209 213 215 212 210 212 209 225 216 273 225 213 232 245 236 226 224 246 235 257 282 298 297 296 299 302 294 309
52 64 87 127 131 137 157 152 149 151 157 155 163 172 188 207 233 236 228 231 227 229 232 238 260 258 261 267 274 271 259 255 241 248 252 265 266 279 292 285 287 307 307 304 309
43 54 71 90 130 143 172 194 199 215 209 209 218 217 210 213 214 225 238 243 251 250 250 256 269 278 284 282 277 274 271 259 248 252 254 266 280 287 272 289 299 313 312 313 314
23 33 43 51 52 64 190 198 214 235 234 239 250 254 256 256 256 257 254 250 248 252 252 249 258 288 276 289 299 289 275 256 246 251 265 249 276 257 284 291 309 311 317 313 310